TimeEDT,TemperatureF,Dew PointF,Humidity,Sea Level PressureIn,VisibilityMPH,Wind Direction,Wind SpeedMPH,Gust SpeedMPH,PrecipitationIn,Events,Conditions,WindDirDegrees,DateUTC
12:53 AM,72.0,64.9,78,29.92,10.0,WNW,3.5,-,0.01,,Mostly Cloudy,290,2013-09-08 04:53:00
1:53 AM,72.0,66.0,81,29.92,10.0,WNW,4.6,-,N/A,,Overcast,300,2013-09-08 05:53:00
2:25 AM,73.4,66.2,78,29.93,10.0,NW,8.1,-,N/A,,Overcast,320,2013-09-08 06:25:00
2:53 AM,72.0,66.0,81,29.92,10.0,North,9.2,16.1,N/A,,Overcast,350,2013-09-08 06:53:00
3:03 AM,71.6,66.2,83,29.93,10.0,North,8.1,-,N/A,,Overcast,350,2013-09-08 07:03:00
3:53 AM,72.0,66.9,84,29.93,10.0,NNE,12.7,-,N/A,,Overcast,20,2013-09-08 07:53:00
4:21 AM,71.6,66.2,83,29.95,10.0,NNE,13.8,18.4,N/A,,Overcast,20,2013-09-08 08:21:00
4:53 AM,71.1,64.9,81,29.95,10.0,NNE,11.5,-,N/A,,Overcast,20,2013-09-08 08:53:00
5:39 AM,69.8,64.4,83,29.97,10.0,North,13.8,25.3,N/A,,Overcast,10,2013-09-08 09:39:00
5:53 AM,69.1,64.0,84,29.97,10.0,North,10.4,-,N/A,,Overcast,10,2013-09-08 09:53:00
6:11 AM,69.8,62.6,78,29.99,10.0,North,10.4,-,N/A,,Overcast,10,2013-09-08 10:11:00
6:19 AM,68.0,62.6,83,30.00,10.0,NNE,12.7,18.4,N/A,,Overcast,20,2013-09-08 10:19:00
6:34 AM,68.0,62.6,83,30.00,10.0,NNE,8.1,-,N/A,,Overcast,20,2013-09-08 10:34:00
6:53 AM,69.1,62.1,78,30.01,10.0,North,9.2,-,N/A,,Overcast,10,2013-09-08 10:53:00
7:53 AM,69.1,61.0,75,30.03,10.0,NNE,8.1,-,N/A,,Overcast,30,2013-09-08 11:53:00
8:53 AM,68.0,62.1,81,30.04,10.0,NNE,11.5,-,N/A,,Overcast,30,2013-09-08 12:53:00
9:53 AM,66.9,60.1,79,30.05,10.0,NNE,12.7,-,N/A,,Overcast,30,2013-09-08 13:53:00
10:53 AM,71.1,57.9,63,30.08,10.0,NE,11.5,17.3,N/A,,Overcast,50,2013-09-08 14:53:00
11:17 AM,69.8,53.6,56,30.09,10.0,NE,15.0,-,N/A,,Scattered Clouds,40,2013-09-08 15:17:00
11:53 AM,71.1,54.0,55,30.10,10.0,NNE,12.7,19.6,N/A,,Clear,30,2013-09-08 15:53:00
12:53 PM,72.0,52.0,49,30.09,10.0,NE,11.5,20.7,N/A,,Clear,50,2013-09-08 16:53:00
1:53 PM,72.0,50.0,46,30.09,10.0,NE,13.8,20.7,N/A,,Clear,50,2013-09-08 17:53:00
2:53 PM,72.0,50.0,46,30.09,10.0,ENE,9.2,17.3,N/A,,Clear,70,2013-09-08 18:53:00
3:53 PM,72.0,48.9,44,30.07,10.0,ENE,9.2,-,N/A,,Clear,60,2013-09-08 19:53:00
4:53 PM,71.1,46.0,41,30.06,10.0,ENE,9.2,-,N/A,,Clear,60,2013-09-08 20:53:00
5:53 PM,70.0,48.0,46,30.07,10.0,ENE,9.2,-,N/A,,Clear,70,2013-09-08 21:53:00
6:53 PM,69.1,46.0,44,30.06,10.0,NNE,8.1,-,N/A,,Clear,30,2013-09-08 22:53:00
7:53 PM,64.0,46.9,54,30.07,10.0,ENE,5.8,-,N/A,,Clear,60,2013-09-08 23:53:00
8:53 PM,63.0,48.0,58,30.09,10.0,NNE,3.5,-,N/A,,Clear,30,2013-09-09 00:53:00
9:53 PM,60.1,48.9,67,30.09,10.0,ENE,4.6,-,N/A,,Clear,60,2013-09-09 01:53:00
10:53 PM,60.1,50.0,69,30.08,10.0,NE,4.6,-,N/A,,Clear,50,2013-09-09 02:53:00
11:53 PM,59.0,51.1,75,30.08,10.0,Calm,Calm,-,N/A,,Clear,0,2013-09-09 03:53:00